Regional Weather Roundup
Issued by NWS State College, PA

Current Version | Previous Version | Text Only | Print | Product List | Glossary On
Versions: 1 2 3 4 5 6 7 8 9 10 11 12 13 14 15 16 17 18 19 20 21 22 23 24 25 26 27 28 29 30 31 32 33 34 35 36 37 38 39 40 41 42 43 44 45 46 47 48 49 50
000
ASUS41 KCTP 301210
RWRCTP

REGIONAL WEATHER ROUNDUP
NATIONAL WEATHER SERVICE STATE COLLEGE PA
800 AM EDT FRI SEP 30 2022

Note: "fair" indicates few or no clouds below 12,000 feet with no
significant weather and/or obstructions to visibility.

* = STATION THAT DOES NOT REPORT PRECIPITATION /E.G. RAIN...SNOW...ETC/
    THUNDER OR FOG.

PAZ002>004-007>009-013>016-020>023-029>032-301300-
WESTERN PENNSYLVANIA

CITY           SKY/WX    TMP DP  RH WIND       PRES   REMARKS
ERIE           CLEAR     42  38  85 CALM      30.36S
MEADVILLE      CLEAR     37  36  96 CALM      30.35S
FRANKLIN       FOG       38  38 100 NE6       30.34F VSB 1/4
NEW CASTLE     FAIR      39  39 100 E5          N/A
BEAVER COUNTY    N/A     44  39  84 CALM      30.32S
BUTLER         MOCLDY    39  39 100 NE6       30.32S
PITTSBURGH INT MOCLDY    43  40  89 NE6       30.30S
PITTSBURGH     MOCLDY    44  40  85 NE3       30.30R
INDIANA*       CLEAR     41  39  93 E5        30.36R
LATROBE        CLEAR     41  41 100 N6        30.31S
WASHINGTON CO* MOCLDY    40  40 100 NE5       30.33R
$$

PAZ004>006-010>012-017>019-024>028-033>037-041-042-045-046-049>053-301300-
CENTRAL PENNSYLVANIA

CITY           SKY/WX    TMP DP  RH WIND       PRES   REMARKS
BRADFORD       PTCLDY    32  29  88 CALM      30.34F
ST MARYS       NOT AVBL
DUBOIS         MOCLDY    38  35  89 E7        30.31F
CLEARFIELD     SNOW      38  37  97 CALM      30.35S VSB<1/4
JOHNSTOWN      MOCLDY    40  38  93 E5        30.30R
SOMERSET       FAIR      36  36 100 CALM      30.31S
ALTOONA        MOCLDY    42  40  92 CALM      30.33R
STATE COLLEGE  FOG       39  39 100 CALM      30.35S VSB 1/4
REEDSVILLE     FAIR      41  39  93 CALM      30.34S
WELLSBORO      FOG       34  34 100 CALM      30.35S VSB<1/4
WILLIAMSPORT   CLOUDY    42  39  89 W3        30.37R
SELINSGROVE    MOCLDY    43  42  97 N3        30.37R
FT INDIANTOWN  PTSUNNY   51  40  66 NE6       30.32S
CAPITAL CITY   MOCLDY    48  44  86 CALM      30.33S
HARRISBURG     CLOUDY    49  43  80 NW3       30.32S
YORK           PTSUNNY   44  42  93 CALM      30.31F
$$

PAZ038>040-043-044-047-048-054-055-060>062-067>071-301300-
EASTERN PENNSYLVANIA

CITY           SKY/WX    TMP DP  RH WIND       PRES   REMARKS
TOWANDA          N/A     37  37 100 CALM      30.42S VSB 1
SCRANTON       PTSUNNY   43  40  89 E5        30.37R
MOUNT POCONO   PTSUNNY   45  37  73 NE10      30.34R
HAZLETON       FAIR      41  41 100 CALM      30.37R
LEHIGHTON      FAIR      37  36  93 CALM      30.37S
ALLENTOWN      MOSUNNY   48  42  80 NE10      30.35S
QN CITY/ALNTWN FAIR      48  43  81 NE7       30.36S
QUAKERTOWN*    SUNNY     48  45  87 NE5       30.34S
PERKASIE*      MOSUNNY   48  45  87 NE8       30.34S
DOYLESTOWN     MOSUNNY   49  41  74 NE5       30.33S
READING        MOSUNNY   51  44  77 NE7       30.32S
LANCASTER      PTSUNNY   50  43  77 NE10      30.32S
COATESVILLE    PTSUNNY   50  45  81 NE3       30.32S
WEST CHESTER   NOT AVBL
POTTSTOWN      MOSUNNY   48  42  80 NE8       30.34S
BLUE BELL      PTSUNNY   49  43  78 NE6       30.32S
NORTH PHILA    PTSUNNY   52  42  69 NE13      30.32F
PHILADELPHIA   CLOUDY    56  46  69 NE13      30.30F
$$



USA.gov is the U.S. government's official web portal to all federal, state and local government web resources and services.